Wind_Speed
67 68 69 69 70 70 71 72 72 73 73 73 73 74 74 74 74 74 74 75 76 77 78 78 79 79 78 77 77 77 77 76 75 76 77 78 80 81 81 82 82 82
69 70 70 71 71 72 72 72 73 73 73 73 73 73 73 72 72 72 73 74 74 75 75 75 76 76 76 77 77 77 76 75 75 74 74 75 76 78 79 80 81 81
71 71 72 72 72 73 73 73 73 74 74 74 73 72 71 71 71 70 70 70 70 71 71 72 72 73 74 75 75 76 76 75 75 75 74 74 74 74 75 77 78 79
72 73 73 73 73 73 73 73 73 73 73 72 72 71 70 68 67 66 67 67 68 69 70 71 72 73 73 74 75 75 76 76 76 75 75 75 75 75 75 75 76 77
73 73 73 73 73 73 73 73 72 72 72 71 70 68 67 66 66 66 67 68 68 69 70 71 71 72 73 73 74 74 75 75 76 76 77 77 77 77 77 77 77 77
73 73 73 73 73 73 72 72 72 71 70 68 67 66 66 66 68 68 68 68 69 69 69 70 71 71 72 73 74 74 75 75 76 77 77 78 78 79 79 79 79 80
74 73 73 73 73 73 73 72 72 70 68 66 65 66 68 70 70 70 70 70 70 70 71 71 72 72 73 74 74 75 75 76 77 77 78 79 79 80 81 81 81 82
73 73 74 74 74 73 72 71 70 68 67 66 66 68 70 72 72 72 72 72 72 72 73 73 74 74 75 75 75 76 76 77 77 78 79 80 80 81 82 82 83 83
73 73 74 74 73 72 70 69 69 67 67 68 69 70 72 73 73 73 73 73 74 74 74 75 75 75 76 76 76 77 77 78 79 79 80 80 81 82 82 83 84 84
72 72 73 72 71 70 69 69 69 68 69 70 71 72 73 73 74 74 74 75 75 75 75 76 76 76 77 77 77 78 78 79 80 80 81 82 82 83 84 85 85 86
71 71 72 71 70 70 69 69 69 70 70 71 72 73 73 74 75 75 75 76 76 76 76 77 77 78 78 78 79 79 79 80 81 81 82 83 84 84 85 85 85 85
71 71 71 71 70 70 70 70 70 70 71 72 73 73 74 75 75 76 76 77 77 77 78 78 79 79 79 79 80 80 80 81 82 82 83 84 84 84 84 84 84 84
70 70 70 70 70 70 71 71 71 71 72 73 74 74 75 76 76 77 77 78 78 79 79 80 80 81 81 81 81 82 82 82 83 83 83 83 83 83 83 82 82 81
70 70 70 70 70 71 71 72 72 73 74 74 75 75 76 76 77 78 79 79 80 80 81 81 82 82 83 83 83 83 83 83 83 82 82 81 80 80 79 78 78 77
70 70 70 70 71 72 72 73 73 74 74 75 75 76 77 77 78 79 80 80 81 81 82 83 83 84 84 83 83 83 83 82 81 80 79 78 77 76 74 74 73 72
71 70 71 71 72 72 73 73 74 75 76 76 77 78 78 79 79 80 81 81 82 82 82 83 83 83 83 82 82 81 81 80 78 76 75 74 73 71 71 70 69 69
71 71 71 71 72 73 74 75 76 77 77 78 78 79 79 79 80 80 81 81 81 81 81 81 81 81 80 79 78 77 76 74 72 71 70 69 68 68 68 67 67 68
70 71 71 72 73 74 75 76 77 78 78 79 79 79 79 79 80 80 80 80 80 79 78 78 77 76 75 73 72 71 70 68 67 66 66 66 66 66 66 67 67 68
71 72 72 73 74 75 76 77 78 78 79 79 78 78 78 78 78 78 77 76 75 74 73 72 71 70 68 67 66 65 65 64 64 64 64 64 65 66 66 67 68 69
72 73 74 74 75 76 77 77 77 78 78 78 77 77 76 75 75 74 72 71 69 68 67 66 65 64 62 62 62 62 62 62 63 63 64 65 66 67 68 69 70 71
74 74 75 75 76 76 76 76 77 77 76 76 75 73 72 71 70 68 66 65 63 62 61 60 60 60 60 60 61 62 63 63 64 65 66 67 68 69 70 71 71 72
75 75 76 76 76 76 75 75 75 74 73 72 70 69 67 66 64 62 61 59 59 58 58 58 59 60 60 61 63 64 64 65 66 67 67 68 69 69 69 69 70 70
76 76 76 76 75 75 74 73 71 70 69 67 66 64 62 61 59 58 57 57 57 58 58 59 60 61 62 63 64 65 66 66 67 67 67 67 67 68 68 68 68 69
76 76 75 74 73 72 70 69 67 66 64 63 61 60 58 58 57 56 57 57 58 59 60 60 61 62 63 64 65 65 66 66 66 66 66 66 66 66 66 66 67 67
75 74 73 71 70 68 67 65 64 62 61 59 58 57 57 56 56 57 57 58 59 59 60 60 61 61 62 63 63 64 64 65 65 65 64 65 65 65 65 65 65 65
72 70 69 67 66 65 63 62 60 59 58 57 57 56 56 56 56 57 57 57 58 58 58 59 59 59 60 61 62 63 63 64 64 64 64 64 64 64 63 63 63 63
Wind_Direction
290 289 289 288 288 287 287 286 286 286 285 285 284 284 284 284 284 283 283 283 282 282 282 282 283 283 284 284 284 284 284 282 281 280 279 279 279 280 280 280 280 280
289 289 289 288 288 288 287 287 287 286 286 285 285 285 284 284 283 283 282 282 282 282 282 282 283 283 283 283 283 284 284 283 283 282 280 279 279 278 279 279 279 280
289 289 288 288 288 288 288 288 287 287 287 286 286 285 285 284 283 283 282 282 282 282 282 282 282 282 282 282 282 283 283 283 283 282 282 281 280 279 279 278 279 279
289 289 289 289 289 288 288 288 287 287 286 286 285 285 284 284 283 283 283 283 282 282 282 282 282 282 282 282 282 282 282 283 283 283 283 283 282 282 281 280 280 279
289 289 289 289 289 289 288 288 287 287 286 285 285 285 284 283 283 283 283 283 283 283 282 282 282 282 282 282 283 283 283 283 284 284 284 284 284 284 283 282 282 281
290 290 290 290 289 289 289 288 288 287 287 287 286 285 285 285 285 286 286 285 285 284 284 284 283 283 284 284 284 284 284 284 285 285 285 285 285 285 284 284 284 283
291 291 291 291 290 290 289 289 289 289 289 288 286 285 286 287 288 288 288 287 287 287 286 286 286 286 286 286 285 285 285 285 285 285 285 286 286 286 286 286 286 285
292 292 291 291 290 290 290 290 290 290 289 288 286 285 285 287 288 288 288 288 288 288 288 287 287 287 287 286 286 286 286 286 286 286 286 287 287 287 287 287 287 287
292 292 291 291 291 291 290 290 290 289 287 286 286 285 286 287 287 288 288 288 288 288 287 287 287 287 287 287 287 287 287 287 287 288 288 288 288 288 288 288 288 288
292 292 292 291 291 291 290 289 289 288 287 287 286 286 286 287 287 287 287 287 287 287 287 287 288 288 288 288 288 288 288 289 289 289 289 289 289 289 289 289 289 289
293 292 292 291 291 290 289 289 288 288 287 287 287 287 287 287 287 287 288 288 288 288 288 289 289 289 289 289 289 289 290 290 290 290 290 290 289 289 289 289 289 289
292 291 291 290 290 289 288 288 288 287 287 287 287 287 287 288 288 288 288 289 289 289 289 290 290 290 290 290 290 290 290 290 290 290 289 289 289 289 289 289 288 288
291 290 289 289 289 288 288 288 288 288 288 287 288 288 288 289 289 289 290 290 290 290 291 291 291 291 291 291 291 291 290 290 290 289 289 289 289 288 288 288 288 287
289 289 289 289 288 288 288 288 288 288 288 288 289 289 289 290 290 291 291 291 291 292 292 292 292 292 291 291 291 291 291 291 290 290 290 289 289 289 289 288 288 287
290 290 289 289 289 288 288 289 289 289 289 289 290 290 291 291 291 292 292 292 292 292 292 292 292 292 292 292 291 291 291 291 291 291 290 290 290 290 289 289 288 288
290 290 290 289 289 289 289 289 289 290 290 291 291 291 292 292 292 292 292 292 292 292 292 292 291 291 291 292 291 291 291 291 290 290 290 290 290 290 290 289 289 288
290 290 290 290 290 290 290 290 291 291 292 292 292 292 292 292 292 292 292 292 291 291 291 291 291 291 291 291 291 290 290 290 290 290 290 290 290 289 289 288 288 288
290 290 290 290 290 290 291 291 292 292 292 292 292 293 293 292 292 291 291 291 291 291 291 291 291 291 291 290 290 290 290 290 290 290 290 290 289 289 288 288 288 288
290 290 290 290 291 291 292 292 292 292 293 293 293 292 292 291 291 291 291 291 291 291 291 290 290 290 290 290 290 290 290 290 290 290 290 290 290 290 290 290 290 290
290 290 291 291 292 292 292 293 293 293 293 292 292 291 291 291 290 291 291 291 291 290 290 290 290 290 290 291 291 291 291 291 291 291 291 291 291 291 291 291 291 291
290 291 292 292 292 293 293 293 293 292 292 291 291 291 290 290 290 290 290 290 290 290 290 290 290 291 292 292 292 292 292 293 293 293 292 292 292 292 293 293 293 293
291 292 292 293 292 293 293 292 292 291 291 291 291 290 290 290 290 290 290 290 290 290 291 291 292 293 293 293 293 293 294 294 294 293 294 294 294 294 294 294 294 293
292 292 292 293 293 293 293 292 291 291 290 291 290 290 291 290 291 291 291 291 292 292 293 293 294 294 294 295 295 295 295 295 295 295 295 295 295 295 295 295 295 294
292 292 293 293 293 293 292 291 291 291 291 291 291 291 291 291 292 292 293 293 294 294 295 295 295 295 296 296 296 296 296 296 296 297 297 297 296 296 296 296 296 295
292 293 293 293 293 293 292 293 293 292 292 291 291 292 292 293 294 294 295 295 296 296 296 296 297 297 297 297 297 297 298 298 298 298 298 298 298 298 298 297 297 297
293 294 294 294 294 294 294 294 293 292 292 292 293 293 294 295 295 296 296 297 297 297 297 297 298 298 298 298 298 298 299 299 299 299 299 299 299 299 299 299 298 298
Height
5727 5725 5722 5720 5718 5715 5713 5711 5709 5706 5704 5702 5699 5697 5695 5693 5691 5689 5686 5684 5682 5679 5677 5674 5672 5670 5667 5665 5664 5662 5661 5660 5658 5657 5655 5653 5651 5650 5648 5646 5645 5644
5718 5716 5713 5711 5709 5706 5704 5702 5699 5697 5694 5692 5689 5687 5685 5683 5681 5679 5677 5675 5672 5670 5667 5665 5663 5660 5658 5656 5654 5652 5651 5649 5647 5646 5645 5643 5642 5640 5638 5636 5635 5633
5710 5707 5705 5702 5700 5697 5695 5692 5689 5686 5684 5681 5679 5677 5675 5674 5671 5669 5667 5665 5663 5661 5658 5656 5654 5652 5649 5647 5645 5643 5641 5639 5637 5635 5634 5633 5631 5630 5628 5627 5625 5623
5701 5699 5696 5693 5691 5688 5685 5683 5680 5677 5674 5672 5670 5668 5666 5664 5662 5660 5658 5656 5654 5652 5650 5647 5645 5642 5640 5638 5636 5633 5631 5629 5627 5625 5623 5621 5620 5618 5617 5616 5614 5612
5692 5689 5687 5684 5682 5679 5676 5673 5670 5667 5665 5663 5661 5659 5657 5655 5653 5651 5649 5647 5645 5643 5640 5638 5635 5633 5630 5628 5626 5624 5621 5619 5617 5614 5612 5610 5608 5607 5605 5604 5602 5601
5683 5680 5678 5675 5672 5669 5666 5663 5660 5658 5655 5653 5651 5649 5648 5646 5644 5642 5639 5637 5635 5633 5631 5628 5626 5623 5621 5618 5616 5614 5611 5609 5607 5604 5602 5599 5597 5595 5593 5591 5589 5588
5674 5671 5668 5665 5662 5659 5656 5653 5650 5648 5646 5644 5642 5640 5638 5636 5633 5631 5629 5627 5625 5622 5620 5618 5615 5613 5611 5608 5606 5604 5601 5599 5596 5594 5591 5588 5586 5583 5581 5579 5576 5574
5665 5662 5659 5656 5652 5649 5646 5644 5641 5639 5637 5635 5633 5631 5629 5626 5624 5621 5619 5617 5614 5612 5610 5607 5605 5603 5600 5598 5596 5593 5591 5588 5586 5583 5580 5578 5575 5572 5569 5567 5564 5562
5656 5653 5649 5646 5643 5640 5637 5635 5633 5631 5629 5627 5625 5622 5620 5617 5614 5612 5609 5607 5604 5602 5600 5597 5595 5593 5590 5588 5586 5583 5581 5578 5575 5573 5570 5567 5564 5560 5558 5555 5552 5550
5646 5643 5639 5636 5633 5630 5628 5626 5624 5622 5620 5618 5616 5613 5610 5607 5605 5602 5600 5597 5595 5592 5590 5587 5585 5582 5580 5578 5576 5573 5570 5568 5565 5562 5559 5555 5552 5549 5546 5544 5541 5538
5636 5633 5629 5626 5624 5622 5620 5617 5615 5614 5611 5609 5606 5603 5600 5598 5595 5592 5590 5587 5585 5582 5579 5577 5574 5572 5570 5567 5565 5562 5560 5557 5554 5551 5547 5544 5541 5538 5535 5532 5529 5526
5627 5623 5620 5618 5616 5613 5611 5609 5606 5604 5602 5599 5597 5594 5591 5588 5585 5582 5580 5577 5574 5572 5569 5566 5563 5561 5559 5556 5554 5552 5549 5546 5543 5540 5537 5533 5530 5527 5524 5521 5518 5515
5618 5615 5612 5610 5607 5604 5602 5599 5597 5595 5592 5590 5587 5584 5581 5578 5575 5572 5569 5566 5564 5561 5558 5555 5552 5549 5547 5545 5543 5540 5537 5535 5532 5528 5525 5521 5518 5515 5512 5509 5506 5503
5609 5607 5605 5602 5599 5596 5593 5590 5588 5585 5583 5580 5577 5575 5571 5568 5565 5562 5559 5556 5553 5550 5547 5543 5540 5537 5535 5533 5530 5528 5525 5522 5519 5515 5512 5509 5506 5503 5500 5497 5494 5491
5600 5598 5596 5593 5589 5586 5583 5580 5578 5575 5573 5570 5568 5565 5562 5558 5555 5552 5548 5545 5542 5539 5535 5532 5528 5525 5523 5521 5518 5515 5513 5510 5507 5503 5500 5497 5494 5491 5488 5485 5482 5480
5592 5589 5586 5583 5580 5577 5574 5571 5568 5566 5563 5561 5558 5555 5552 5548 5545 5541 5537 5534 5531 5527 5524 5520 5516 5513 5511 5509 5506 5503 5501 5498 5495 5493 5489 5486 5484 5481 5478 5475 5471 5469
5583 5580 5577 5574 5571 5567 5564 5561 5558 5556 5553 5550 5547 5544 5541 5538 5534 5531 5527 5523 5520 5516 5513 5509 5505 5502 5500 5497 5495 5492 5489 5487 5485 5482 5480 5477 5474 5471 5468 5465 5463 5460
5574 5571 5568 5565 5562 5558 5555 5552 5549 5546 5543 5540 5537 5534 5531 5527 5523 5520 5516 5512 5509 5505 5502 5498 5494 5491 5489 5487 5484 5481 5479 5477 5475 5473 5471 5468 5465 5462 5459 5456 5454 5451
5564 5562 5559 5556 5553 5549 5546 5542 5539 5536 5532 5529 5526 5523 5520 5516 5512 5509 5505 5501 5498 5495 5492 5488 5484 5481 5480 5477 5475 5472 5469 5468 5466 5464 5462 5459 5456 5453 5450 5447 5445 5442
5555 5553 5550 5548 5544 5540 5537 5533 5529 5525 5522 5518 5515 5512 5509 5505 5501 5498 5494 5491 5488 5485 5482 5478 5475 5472 5471 5468 5466 5464 5461 5459 5458 5455 5453 5450 5447 5443 5441 5438 5435 5431
5546 5543 5541 5538 5535 5531 5528 5524 5519 5515 5512 5508 5505 5501 5498 5494 5491 5488 5485 5481 5478 5476 5473 5470 5466 5464 5462 5460 5457 5455 5453 5451 5449 5446 5444 5441 5438 5434 5431 5428 5425 5421
5537 5534 5531 5529 5525 5522 5518 5514 5510 5506 5502 5498 5495 5491 5488 5485 5482 5479 5476 5473 5470 5467 5465 5462 5458 5456 5454 5451 5449 5446 5444 5442 5440 5437 5434 5432 5428 5425 5422 5419 5415 5411
5528 5525 5522 5519 5515 5512 5508 5504 5500 5496 5492 5489 5485 5482 5478 5475 5473 5470 5467 5464 5462 5459 5457 5454 5450 5447 5445 5443 5440 5437 5435 5433 5430 5428 5425 5422 5419 5416 5413 5409 5405 5401
5519 5516 5512 5509 5505 5502 5497 5494 5490 5486 5483 5479 5476 5473 5470 5467 5465 5462 5459 5456 5454 5451 5448 5446 5443 5439 5437 5434 5431 5428 5426 5423 5421 5419 5416 5413 5410 5406 5403 5400 5396 5392
5510 5506 5503 5499 5495 5491 5487 5484 5481 5477 5474 5471 5468 5465 5463 5460 5457 5455 5452 5449 5446 5443 5440 5438 5435 5432 5429 5426 5422 5419 5417 5414 5412 5410 5407 5403 5400 5397 5394 5390 5386 5383
5500 5497 5493 5490 5486 5482 5479 5475 5472 5469 5466 5463 5461 5458 5456 5453 5450 5447 5445 5441 5438 5435 5432 5430 5428 5425 5421 5418 5415 5411 5409 5406 5403 5401 5398 5394 5392 5389 5385 5382 5378 5374